[[{"header":{"parameterUnit":"m.s-1","parameterCategory":1,"la1":30.2991,"la2":30.254,"lo1":-89.0895,"lo2":-89.0444,"dy":0.0017,"dx":0.0017,"nx":28,"ny":28,"refTime":"2024-07-02T09:00:00:Z","depth":0,"parameterNumber":2,"parameterNumberName":"U-component_of_WINDS"},"data":[0,0,0,0,0,0,0,0,0,0,0,0,0,0,0,0,0,0,0,0,0,0,0,0,0,0,0,0,0,0,0,0,0,0,0,0,0,0,0,0,0,0,0,0,0,0,0,0,0,0,0,0,0,0,0,0,0,0,-0.103,-0.103,0,-0.1016,-0.1016,-0.1015,-0.1012,-0.1012,-0.1012,-0.1012,-0.0995,-0.0994,-0.0994,0,0,0,0,0,0,0,0,0,0,0,0,0,-0.1052,-0.1051,-0.103,-0.103,-0.103,-0.1016,-0.1016,-0.1015,-0.1012,-0.1012,-0.1012,-0.1012,-0.0995,-0.0995,-0.0994,0,0,0,0,0,0,0,0,0,0,0,0,0,-0.104,-0.1051,-0.103,-0.1026,-0.1026,-0.1016,-0.1016,-0.1015,-0.1012,-0.1012,-0.1012,-0.1012,-0.0995,-0.0995,-0.0994,-0.0986,0,0,-0.0991,-0.0991,0,0,0,0,0,0,0,0,-0.1041,-0.1039,-0.1027,-0.1027,-0.1026,-0.1016,-0.1017,-0.1005,-0.1012,-0.1017,-0.1012,-0.1012,-0.1002,-0.1,-0.0997,-0.0985,-0.0984,-0.0991,-0.0991,-0.099,-0.099,0,0,0,0,0,0,0,-0.1042,-0.104,-0.1024,-0.1027,-0.1026,-0.1024,-0.1023,-0.1015,-0.1009,-0.1017,-0.1016,-0.1015,-0.1001,-0.0998,-0.0997,-0.0984,-0.0991,-0.0991,-0.099,-0.099,-0.0963,-0.0963,0,0,0,0,0,0,-0.1044,-0.1041,-0.1025,-0.1024,-0.1034,-0.1024,-0.1022,-0.1019,-0.1009,-0.1007,-0.1015,-0.1015,-0.0999,-0.0998,-0.0996,-0.0986,-0.099,-0.099,-0.0989,-0.0964,-0.0963,-0.0963,0,0,0,0,0,0,-0.1044,-0.1042,-0.1025,-0.1032,-0.103,-0.1023,-0.102,-0.1018,-0.1015,-0.1007,-0.1006,-0.1013,-0.0999,-0.0997,-0.0988,-0.0985,-0.0989,-0.0988,-0.0964,-0.0964,-0.0963,-0.0965,0,0,0,0,0,0,-0.1045,-0.1042,-0.104,-0.1032,-0.103,-0.1019,-0.1019,-0.1018,-0.1014,-0.1014,-0.1005,-0.1004,-0.0999,-0.099,-0.0988,-0.0984,-0.0988,-0.0964,-0.0964,-0.0963,-0.0965,-0.0964,-0.0964,0,0,0,0,0,-0.1045,-0.104,-0.104,-0.1038,-0.1026,-0.1018,-0.1017,-0.1013,-0.1014,-0.1011,-0.1006,-0.1004,-0.0986,-0.0989,-0.0986,-0.0982,-0.0964,-0.0964,-0.0963,-0.0965,-0.0964,-0.0964,0,0,0,0,0,0,-0.1047,-0.1039,-0.1038,-0.1031,-0.1025,-0.1018,-0.1014,-0.1012,-0.1006,-0.1006,-0.1,-0.0998,-0.099,-0.0985,-0.0989,-0.0974,-0.0975,-0.0974,-0.0977,-0.0976,-0.0976,-0.0977,-0.0987,0,0,0,0,0,-0.1047,-0.1041,-0.1035,-0.1029,-0.1026,-0.102,-0.1017,-0.1014,-0.1008,-0.1005,-0.0999,-0.0993,-0.0985,-0.0981,-0.0974,-0.0964,-0.0962,-0.096,-0.096,-0.0959,-0.0958,-0.0952,-0.0951,-0.0962,-0.0962,-0.0962,0,0,-0.1045,-0.104,-0.1037,-0.1029,-0.1024,-0.1018,-0.1018,-0.1012,-0.1007,-0.1004,-0.0995,-0.0991,-0.0983,-0.0973,-0.0969,-0.0969,-0.0955,-0.0959,-0.0959,-0.0958,-0.0952,-0.0951,-0.095,-0.0961,-0.0961,-0.0961,0,0,-0.104,-0.1036,-0.1031,-0.1026,-0.1019,-0.1016,-0.1014,-0.1007,-0.1004,-0.0995,-0.0993,-0.0986,-0.0974,-0.0968,-0.0964,-0.0956,-0.0954,-0.0954,-0.0951,-0.0946,-0.0945,-0.0944,-0.094,-0.0939,-0.0953,-0.0953,-0.0953,0,-0.1039,-0.1031,-0.1028,-0.1021,-0.1017,-0.1015,-0.1009,-0.1004,-0.0995,-0.0992,-0.0993,-0.0977,-0.0971,-0.096,-0.0959,-0.0955,-0.0953,-0.0955,-0.0945,-0.0945,-0.0944,-0.094,-0.0939,-0.0953,-0.0953,-0.0953,-0.0953,0,-0.103,-0.1024,-0.102,-0.1012,-0.1007,-0.1001,-0.0996,-0.0992,-0.099,-0.0986,-0.0976,-0.097,-0.0961,-0.0958,-0.0956,-0.0946,-0.0947,-0.0947,-0.0948,-0.0943,-0.0939,-0.0938,-0.0953,-0.0953,-0.0953,-0.0953,0,0,-0.1025,-0.1015,-0.1014,-0.101,-0.1002,-0.0997,-0.099,-0.0983,-0.0979,-0.0972,-0.0966,-0.0956,-0.0955,-0.095,-0.0947,-0.0942,-0.0935,-0.0942,-0.0942,-0.094,-0.0924,-0.0924,-0.0922,-0.0934,-0.0934,-0.0934,-0.0924,0,-0.1018,-0.1007,-0.1004,-0.0994,-0.0988,-0.0985,-0.0979,-0.0973,-0.0969,-0.0963,-0.0958,-0.0951,-0.0951,-0.0948,-0.0943,-0.0937,-0.0932,-0.0938,-0.0927,-0.0927,-0.0928,-0.0921,-0.092,-0.0912,-0.0923,-0.0923,-0.0923,0,-0.1009,-0.1003,-0.0993,-0.0985,-0.0983,-0.0978,-0.097,-0.0964,-0.0957,-0.0954,-0.0949,-0.0946,-0.0938,-0.094,-0.0928,-0.0932,-0.0927,-0.0924,-0.0923,-0.0922,-0.0924,-0.0918,-0.0909,-0.0908,-0.0921,-0.0921,-0.0921,0,-0.1005,-0.0995,-0.0987,-0.0984,-0.0976,-0.0972,-0.0968,-0.0961,-0.0957,-0.095,-0.0946,-0.0938,-0.0934,-0.0927,-0.0922,-0.0924,-0.091,-0.0911,-0.0906,-0.0906,-0.0903,-0.0903,-0.0893,-0.0901,-0.0901,-0.0901,-0.0901,0,-0.0998,-0.0991,-0.0986,-0.0981,-0.0973,-0.097,-0.0962,-0.0958,-0.0952,-0.0945,-0.0943,-0.0936,-0.093,-0.0923,-0.0918,-0.0909,-0.0907,-0.0904,-0.0902,-0.0903,-0.0904,-0.09,-0.09,-0.0901,-0.0901,-0.0901,-0.0901,0,-0.0993,-0.0989,-0.098,-0.0973,-0.0971,-0.0966,-0.0959,-0.0954,-0.095,-0.0942,-0.0939,-0.0933,-0.0924,-0.0918,-0.0907,-0.0904,-0.0893,-0.0892,-0.0896,-0.0895,-0.089,-0.089,-0.0876,-0.0873,-0.0884,-0.0884,-0.0884,0,-0.0988,-0.0983,-0.0975,-0.0971,-0.0968,-0.0961,-0.0957,-0.0952,-0.0947,-0.0939,-0.0934,-0.0926,-0.0918,-0.0904,-0.0898,-0.0889,-0.0887,-0.0883,-0.0886,-0.0887,-0.0886,-0.0886,-0.0885,-0.0882,-0.0882,-0.0882,-0.0882,0,-0.098,-0.0978,-0.0972,-0.0965,-0.096,-0.0954,-0.0948,-0.0944,-0.0939,-0.0933,-0.0925,-0.0919,-0.0908,-0.0899,-0.0889,-0.0884,-0.0882,-0.0881,-0.0879,-0.088,-0.0882,-0.088,-0.0894,-0.0881,-0.0882,-0.0882,-0.0882,-0.0882,-0.0974,-0.0969,-0.0963,-0.0956,-0.0952,-0.0946,-0.0941,-0.0936,-0.0929,-0.092,-0.0918,-0.0909,-0.0901,-0.0888,-0.0883,-0.0875,-0.0875,-0.0873,-0.0872,-0.0871,-0.0871,-0.0884,-0.0873,-0.0873,-0.0873,-0.0873,-0.0873,0,-0.0965,-0.0961,-0.0955,-0.0947,-0.0941,-0.0941,-0.0934,-0.0929,-0.0921,-0.0914,-0.0908,-0.0897,-0.0888,-0.0881,-0.0872,-0.0867,-0.0865,-0.0864,-0.0864,-0.0863,-0.0871,-0.0873,-0.0865,-0.0865,-0.0865,-0.0865,-0.0865,-0.0865,-0.096,-0.0951,-0.0949,-0.0938,-0.0934,-0.0926,-0.0922,-0.0916,-0.0911,-0.09,-0.0893,-0.0888,-0.0881,-0.0871,-0.0863,-0.0861,-0.0857,-0.0856,-0.0854,-0.0861,-0.0862,-0.0863,-0.0865,-0.0855,-0.0855,-0.0846,-0.0845,-0.0845]},{"header":{"parameterUnit":"m.s-1","parameterCategory":1,"la1":30.2991,"la2":30.254,"lo1":-89.0895,"lo2":-89.0444,"dy":0.0017,"dx":0.0017,"nx":28,"ny":28,"refTime":"2024-07-02T09:00:00:Z","depth":0,"parameterNumber":3,"parameterNumberName":"V-component_of_WINDS"},"data":[0,0,0,0,0,0,0,0,0,0,0,0,0,0,0,0,0,0,0,0,0,0,0,0,0,0,0,0,0,0,0,0,0,0,0,0,0,0,0,0,0,0,0,0,0,0,0,0,0,0,0,0,0,0,0,0,0,0,-1.972,-1.9721,0,-1.983,-1.9831,-1.9832,-1.9862,-1.9862,-1.9861,-1.9861,-1.9972,-1.9976,-1.9979,0,0,0,0,0,0,0,0,0,0,0,0,0,-1.9535,-1.9538,-1.972,-1.9721,-1.9722,-1.9829,-1.9831,-1.9832,-1.9862,-1.9862,-1.9861,-1.986,-1.9971,-1.9975,-1.9979,0,0,0,0,0,0,0,0,0,0,0,0,0,-1.9627,-1.954,-1.9719,-1.975,-1.9754,-1.9829,-1.9831,-1.9833,-1.9863,-1.9862,-1.9861,-1.986,-1.997,-1.9975,-1.998,-2.0032,0,0,-1.9996,-1.9999,0,0,0,0,0,0,0,0,-1.9622,-1.9634,-1.9744,-1.9748,-1.9753,-1.9831,-1.9807,-1.9899,-1.9863,-1.9821,-1.986,-1.9859,-1.9926,-1.9935,-1.9958,-2.0037,-2.0042,-1.9997,-2.0,-2.0002,-2.0004,0,0,0,0,0,0,0,-1.9616,-1.9629,-1.9763,-1.9746,-1.9751,-1.9758,-1.9771,-1.9825,-1.9878,-1.9825,-1.9827,-1.984,-1.9928,-1.9952,-1.996,-2.0043,-1.9997,-2.0001,-2.0005,-2.0007,-2.0171,-2.0172,0,0,0,0,0,0,-1.9604,-1.9624,-1.976,-1.9766,-1.9684,-1.9763,-1.9776,-1.9807,-1.9877,-1.9887,-1.9841,-1.9841,-1.9944,-1.9954,-1.9964,-2.003,-2.0002,-2.0007,-2.001,-2.017,-2.0171,-2.0173,0,0,0,0,0,0,-1.96,-1.9616,-1.9755,-1.9696,-1.9714,-1.9767,-1.9801,-1.981,-1.9834,-1.9889,-1.9899,-1.9856,-1.9943,-1.9957,-2.0015,-2.0034,-2.001,-2.0015,-2.0169,-2.0171,-2.0172,-2.0161,0,0,0,0,0,0,-1.9594,-1.9614,-1.9634,-1.9696,-1.9717,-1.9804,-1.9803,-1.9813,-1.9843,-1.9845,-1.9906,-1.9915,-1.9944,-2.0007,-2.002,-2.0041,-2.0019,-2.0167,-2.0169,-2.0172,-2.016,-2.0162,-2.0164,0,0,0,0,0,-1.9588,-1.9627,-1.9635,-1.9652,-1.9744,-1.9805,-1.9817,-1.985,-1.9845,-1.9865,-1.9901,-1.9913,-2.003,-2.0012,-2.0028,-2.0051,-2.0166,-2.0169,-2.0171,-2.0159,-2.0162,-2.0164,0,0,0,0,0,0,-1.9566,-1.9635,-1.9646,-1.9706,-1.9749,-1.981,-1.9837,-1.9851,-1.9897,-1.9897,-1.9935,-1.9948,-2.0004,-2.0033,-2.0012,-2.0104,-2.0098,-2.0104,-2.0083,-2.0086,-2.0089,-2.008,-2.0023,0,0,0,0,0,-1.9568,-1.9612,-1.967,-1.9718,-1.9739,-1.9784,-1.9812,-1.9834,-1.988,-1.9899,-1.9938,-1.9983,-2.003,-2.006,-2.0106,-2.0164,-2.0178,-2.0187,-2.0189,-2.0191,-2.0195,-2.0229,-2.0234,-2.0181,-2.0181,-2.0181,0,0,-1.9573,-1.9616,-1.9642,-1.9714,-1.9751,-1.9795,-1.98,-1.9847,-1.988,-1.9906,-1.9963,-1.9994,-2.0046,-2.0104,-2.0132,-2.013,-2.0213,-2.0194,-2.0195,-2.0199,-2.0232,-2.0237,-2.0241,-2.0183,-2.0183,-2.0183,0,0,-1.9604,-1.9642,-1.9685,-1.9722,-1.9777,-1.9807,-1.9817,-1.9876,-1.9897,-1.9955,-1.9976,-2.0016,-2.0096,-2.0132,-2.0161,-2.0207,-2.022,-2.0221,-2.0232,-2.0264,-2.0268,-2.0272,-2.0288,-2.0294,-2.0225,-2.0225,-2.0225,0,-1.9603,-1.9672,-1.9706,-1.9752,-1.9784,-1.9809,-1.9854,-1.9887,-1.9954,-1.9975,-1.9972,-2.0073,-2.011,-2.0178,-2.0189,-2.0211,-2.0224,-2.0214,-2.0265,-2.0269,-2.0273,-2.0289,-2.0295,-2.0225,-2.0225,-2.0225,-2.0225,0,-1.9668,-1.9715,-1.9744,-1.9808,-1.9843,-1.9888,-1.9929,-1.996,-1.9978,-2.0008,-2.0067,-2.0112,-2.0168,-2.0186,-2.0204,-2.0256,-2.0253,-2.0257,-2.0252,-2.0277,-2.0293,-2.0299,-2.0224,-2.0225,-2.0225,-2.0225,0,0,-1.9689,-1.9772,-1.9782,-1.9811,-1.9874,-1.9911,-1.9957,-2.0012,-2.0038,-2.0083,-2.0123,-2.019,-2.0194,-2.0227,-2.0249,-2.0277,-2.0311,-2.0278,-2.028,-2.0283,-2.0372,-2.0369,-2.0375,-2.032,-2.0321,-2.0322,-2.0367,0,-1.9729,-1.9813,-1.9845,-1.9913,-1.9957,-1.9982,-2.0022,-2.0065,-2.0094,-2.0135,-2.0168,-2.0215,-2.0216,-2.0237,-2.0265,-2.0301,-2.0329,-2.0298,-2.0357,-2.0359,-2.0344,-2.0383,-2.038,-2.0421,-2.0374,-2.0375,-2.0376,0,-1.9786,-1.9833,-1.9905,-1.9963,-1.9982,-2.0018,-2.0071,-2.011,-2.0159,-2.0179,-2.0215,-2.0236,-2.0286,-2.0277,-2.0345,-2.0323,-2.0349,-2.037,-2.0373,-2.038,-2.0369,-2.0392,-2.0434,-2.044,-2.0386,-2.0385,-2.0384,0,-1.9795,-1.9875,-1.9929,-1.9954,-2.0022,-2.0046,-2.0076,-2.0124,-2.0155,-2.0201,-2.0222,-2.0273,-2.0301,-2.034,-2.0374,-2.0364,-2.044,-2.0434,-2.0457,-2.0456,-2.0472,-2.0471,-2.052,-2.0488,-2.0488,-2.0488,-2.0488,0,-1.9836,-1.9879,-1.9934,-1.9967,-2.0017,-2.0053,-2.0101,-2.0132,-2.0175,-2.0214,-2.0239,-2.0275,-2.0318,-2.036,-2.0387,-2.044,-2.0452,-2.047,-2.0476,-2.0468,-2.0465,-2.0485,-2.0483,-2.049,-2.0489,-2.0489,-2.0489,0,-1.9854,-1.9892,-1.9952,-2.0012,-2.0028,-2.0062,-2.0113,-2.0146,-2.0176,-2.0226,-2.024,-2.0288,-2.0339,-2.0377,-2.0443,-2.0461,-2.0517,-2.0524,-2.0501,-2.0504,-2.0526,-2.0523,-2.059,-2.06,-2.0561,-2.0562,-2.0562,0,-1.9878,-1.9912,-1.9975,-2.0003,-2.0033,-2.0078,-2.011,-2.0147,-2.0179,-2.0238,-2.0264,-2.0316,-2.0361,-2.0441,-2.0481,-2.0532,-2.054,-2.056,-2.0548,-2.0538,-2.0541,-2.0539,-2.0542,-2.0562,-2.0562,-2.0562,-2.0562,0,-1.9916,-1.9933,-1.9978,-2.003,-2.0067,-2.011,-2.0153,-2.0175,-2.0219,-2.0254,-2.0307,-2.0341,-2.0408,-2.046,-2.0515,-2.0545,-2.0561,-2.0566,-2.0574,-2.0565,-2.0551,-2.0559,-2.0506,-2.0564,-2.0564,-2.0564,-2.0564,-2.0564,-1.9938,-1.997,-2.0019,-2.0069,-2.0105,-2.0144,-2.0178,-2.0213,-2.0258,-2.0316,-2.0335,-2.0389,-2.0437,-2.0512,-2.0543,-2.0586,-2.0586,-2.0598,-2.0601,-2.0603,-2.0603,-2.0544,-2.0596,-2.0596,-2.0596,-2.0596,-2.0596,0,-1.9978,-2.0011,-2.0056,-2.0116,-2.0154,-2.0166,-2.0214,-2.0246,-2.0293,-2.0337,-2.038,-2.044,-2.0491,-2.0536,-2.0588,-2.0614,-2.0623,-2.0627,-2.0625,-2.0632,-2.06,-2.0588,-2.0619,-2.0619,-2.0619,-2.0619,-2.0619,-2.0619,-2.0004,-2.0058,-2.0081,-2.0153,-2.0186,-2.0239,-2.0266,-2.0302,-2.0337,-2.0404,-2.0446,-2.0475,-2.0519,-2.0575,-2.0622,-2.0634,-2.0652,-2.0654,-2.0668,-2.0637,-2.0634,-2.0632,-2.062,-2.0658,-2.0658,-2.0697,-2.0697,-2.0697]}]]